Location: Pompeys Pillar
(45.9913°N, 107.9528°W)
Time: 05:27:31
(UTC+00:00)

Tiros 1 - Pass Details

Date: 06 June 2022
Orbit: 629 x 663 km, 48.4° (Epoch: 30 June)

Event Time Altitude Azimuth Distance (km) Brightness Sun altitude
Rises 10:19:10 0° 285° (WNW) 2,923 10.2 -9.1°
Reaches altitude 10° 10:22:01 10° 268° (W) 2,016 9.3 -8.8°
Maximum altitude 10:25:19 19° 222° (SW) 1,496 8.4 -8.4°
Drops below altitude 10° 10:28:36 10° 177° (S) 2,021 9.3 -8.0°
Sets 10:31:28 0° 160° (SSE) 2,933 10.3 -7.6°
